Tracking 35237 objects as of 5-Sep-2026
HD Live streaming from Space Station
objects crossing your sky now

GEOEYE 1 DEB


GEOEYE 1 DEB is no longer on orbit


NORAD ID: 35570
Int'l Code: 2008-042C
Launch date: September 6, 2008
Source: United States (US)
Launch site: AIR FORCE WESTERN TEST RANGE (AFWTR)
Decay date: 2011-10-23

Note: This is SATELLITE DEBRIS
Your satellite tracking list
Your tracking list is empty




NASA's NSSDC Master Catalog

Two Line Element Set (TLE):
1 35570U 08042C   11260.50507711  .00146598  00000-0  10359-1 0  9992
2 35570 098.2207 000.1248 0007607 288.4902 071.6841 15.04143674150983
Source of the keplerian elements: AFSPC